Regional Weather Roundup
Issued by NWS Green Bay, WI

Home | Current Version | Previous Version | Text Only | Print | Product List | Glossary On
Versions: 1 2 3 4 5 6 7 8 9 10 11 12 13 14 15 16 17 18 19 20 21 22 23 24 25 26 27 28 29 30 31 32 33 34 35 36 37 38 39 40 41 42 43 44 45 46 47 48 49 50
000
ASUS43 KGRB 182000
RWRGRB

NORTH-CENTRAL AND NORTHEAST WISCONSIN REGIONAL WEATHER ROUNDUP
NATIONAL WEATHER SERVICE GREEN BAY WI
300 PM CDT WED OCT 18 2017

WIZ005-009-010>012-018-019-182100-
NORTH CENTRAL WISCONSIN

CITY           SKY/WX    TMP DP  RH WIND       PRES   REMARKS
IRONWOOD       CLOUDY    70  45  40 W26G33    29.68R
MANITOWISH WTR NOT AVBL
ARBOR VITAE    NOT AVBL
EAGLE RIVER    NOT AVBL
LAND O LAKES   NOT AVBL
RHINELANDER    CLOUDY    69  47  45 S17G25    29.77F
PHILLIPS       NOT AVBL
ANTIGO         NOT AVBL
TOMAHAWK       NOT AVBL
MERRILL        NOT AVBL
$$

WIZ013-073-182100-
NORTHEAST WISCONSIN

CITY           SKY/WX    TMP DP  RH WIND       PRES   REMARKS
IRON MOUNTAIN  SUNNY     72  45  37 S17G26    29.76F
MARINETTE      SUNNY     69  49  48 SW20G25   29.84F
$$

WIZ017-030-035>037-045-182100-
CENTRAL WISCONSIN

CITY           SKY/WX    TMP DP  RH WIND       PRES   REMARKS
MEDFORD        NOT AVBL
WAUSAU         LGT RAIN  71  47  42 S16G26    29.80F
MOSINEE        MOSUNNY  N/A N/A N/A S16G25    29.85F
MARSHFIELD     SUNNY     71  44  37 SW23G33   29.82F
WISC RAPIDS    SUNNY     73  48  41 SW15G25   29.87F
STEVENS POINT  NOT AVBL
WAUPACA        NOT AVBL
SHAWANO        NOT AVBL
CLINTONVILLE   NOT AVBL
WAUTOMA        SUNNY     72  48  42 S17G25    29.88F
$$

WIZ038-039-048-051-182100-
FOX VALLEY

CITY           SKY/WX    TMP DP  RH WIND       PRES   REMARKS
NWS GREEN BAY  SUNNY     70  50  49 S18G31    29.87F
APPLETON       SUNNY     72  41  33 SW18G31   29.88F
OSHKOSH        SUNNY     71  48  43 S24G37    29.89F
FOND DU LAC    SUNNY     72  44  36 S14G30    29.91F
$$

WIZ022-050-052-182100-
EAST CENTRAL WISCONSIN

CITY           SKY/WX    TMP DP  RH WIND       PRES   REMARKS
EPHRAIM        NOT AVBL
WASHINGTON ISL NOT AVBL
STURGEON BAY   SUNNY     65  51  60 S18G26    29.87F
MANITOWOC      SUNNY     63  51  65 S20G26    29.92F
SHEBOYGAN      SUNNY     72  44  36 S24G32    29.93F
$$

LMZ563-521-522-541>543-182100-
LAKESHORE

STATION/POSITION TIME  TEMP    WIND        PRES    VSBY  WAVE
                       AIR SEA DIR/SP/G                  HT/PER
                 (UTC) (F)     (DEG/KT/KT) (MB)    (MI)  (FT/S)
SHEBOYGAN LKSHOR 1900   57     180/ 22/ 25 1014.4F
KEWAUNEE LKSHORE 1930   58     180/ 20/ 22 1012.2F
NORTHPORT PIER   1940   62     160/ 12/ 21 1010.8F
N MID LAKE BUOY  1850   61 59  190/ 27/ 33 1011.9F         8/ 7
S GREEN BAY BUOY 1900   63 58  200/ 17/ 21 1011.5
SISTER BAY LKSHO 1919   67     200/ 21/ 28   N/A
MENOMINEE LKSHOR 1930   66     190/ 20/ 28 1010.4F
$$




USA.gov is the U.S. government's official web portal to all federal, state and local government web resources and services.